Weather History for Broomfield, CO

Change the Weather History Date:

Thursday, January 19, 2012

  Actual Average Record
Temperature  
Mean Temperature 54 °F -  
Max Temperature 64 °F 44 °F 68 °F (1986)
Min Temperature 44 °F 25 °F 4 °F (1985)
Degree Days  
Heating Degree Days 11    
Growing Degree Days 4 (Base 50)    
Moisture  
Dew Point 20 °F    
Average Humidity 29    
Maximum Humidity 43    
Minimum Humidity 18    
Precipitation  
Precipitation 0.00 in - - ()
Sea Level Pressure  
Sea Level Pressure 29.70 in    
Wind  
Wind Speed 13 mph (NNW)    
Max Wind Speed 30 mph    
Max Gust Speed 53 mph    
Visibility 10 miles    
Events      
Averages and records for this station are not official NWS values.
T = Trace of Precipitation, MM = Missing Value Source: NWS Daily Summary

Daily Weather History Graph

Daily Weather History Graph

Search for Another Location

Airport:

Trip Planner

Search our weather history database for the weather conditions in past years. The results will help you decide how hot, cold, wet, or windy it might be!

Date:

Astronomy

Jan. 19, 2012 Rise Set
Actual Time 7:18 AM MST 5:03 PM MST
Civil Twilight 6:49 AM MST 5:33 PM MST
Nautical Twilight 6:15 AM MST 6:06 PM MST
Astronomical Twilight 5:43 AM MST 6:38 PM MST
Moon 3:57 AM MST (1/19) 1:38 PM MST (1/19)
Length of Visible Light 10h 44m
Length of Day
9h 45m
Waning Crescent, 15% of the Moon is Illuminated
Jan 19
Waning Crescent
Jan 23
New
Jan 30
First Quarter
Feb 7
Full
Feb 14
Last Quarter

Hourly Weather History & Observations

Time (MST) Temp. Windchill Dew Point Humidity Pressure Visibility Wind Dir Wind Speed Gust Speed Precip Events Conditions
12:01 AM 44.6 °F 38.8 °F 15.8 °F 31% 29.77 in 10.0 mi North 11.5 mph - N/A   Clear
12:20 AM 46.4 °F 39.5 °F 14.0 °F 27% 29.77 in 10.0 mi NW 17.3 mph 24.2 mph N/A   Scattered Clouds
12:41 AM 46.4 °F 39.2 °F 17.6 °F 32% 29.76 in 10.0 mi NW 18.4 mph 26.5 mph N/A   Scattered Clouds
1:00 AM 46.4 °F 44.3 °F 17.6 °F 32% 29.77 in 10.0 mi NNE 4.6 mph - N/A   Scattered Clouds
1:20 AM 44.6 °F 39.2 °F 19.4 °F 37% 29.77 in 10.0 mi NW 10.4 mph 16.1 mph N/A   Scattered Clouds
1:40 AM 44.6 °F 37.2 °F 17.6 °F 34% 29.77 in 10.0 mi NW 17.3 mph 23.0 mph N/A   Clear
2:01 AM 46.4 °F 39.0 °F 17.6 °F 32% 29.77 in 10.0 mi WSW 19.6 mph 27.6 mph N/A   Clear
2:21 AM 46.4 °F 38.3 °F 17.6 °F 32% 29.76 in 10.0 mi West 23.0 mph 34.5 mph N/A   Clear
2:40 AM 48.2 °F - 17.6 °F 30% 29.74 in 10.0 mi WNW 20.7 mph 27.6 mph N/A   Clear
3:01 AM 46.4 °F 45.2 °F 17.6 °F 32% 29.73 in 10.0 mi NNE 3.5 mph - N/A   Clear
3:21 AM 46.4 °F 44.3 °F 17.6 °F 32% 29.74 in 10.0 mi East 4.6 mph - N/A   Clear
3:41 AM 46.4 °F 44.3 °F 17.6 °F 32% 29.72 in 10.0 mi East 4.6 mph 11.5 mph N/A   Clear
4:00 AM 50.0 °F - 15.8 °F 26% 29.71 in 10.0 mi SSE 4.6 mph - N/A   Clear
4:21 AM 46.4 °F 42.9 °F 17.6 °F 32% 29.71 in 10.0 mi East 6.9 mph - N/A   Clear
4:41 AM 46.4 °F 44.3 °F 17.6 °F 32% 29.71 in 10.0 mi NE 4.6 mph - N/A   Clear
5:48 AM 48.2 °F - 19.4 °F 32% 29.74 in 25.0 mi East 11.5 mph 18.4 mph N/A   Clear
6:46 AM 50.0 °F - 19.4 °F 30% 29.75 in 40.0 mi NNW 12.7 mph - N/A   Partly Cloudy
7:48 AM 50.0 °F - 17.6 °F 28% 29.76 in - North - - N/A   Partly Cloudy
8:50 AM 57.2 °F - 17.6 °F 21% 29.78 in 70.0 mi North 16.1 mph 23.0 mph N/A   Partly Cloudy
9:46 AM 55.4 °F - 17.6 °F 23% 29.77 in 70.0 mi East 12.7 mph 24.2 mph N/A   Scattered Clouds
10:45 AM 55.4 °F - 19.4 °F 25% 29.77 in 70.0 mi East 9.2 mph - N/A   Mostly Cloudy
11:47 AM 59.0 °F - 17.6 °F 20% 29.74 in 70.0 mi ENE 10.4 mph - N/A   Scattered Clouds
12:25 PM 60.8 °F - 17.6 °F 19% 29.70 in 70.0 mi North 5.8 mph - N/A   Scattered Clouds
12:53 PM 62.6 °F - 19.4 °F 19% 29.69 in 70.0 mi Variable 4.6 mph - N/A   Mostly Cloudy
1:40 PM 60.8 °F - 21.2 °F 22% 29.68 in 70.0 mi West 19.6 mph 31.1 mph N/A   Scattered Clouds
1:55 PM 59.0 °F - 21.2 °F 23% 29.69 in 70.0 mi WSW 21.9 mph 43.7 mph N/A   Mostly Cloudy
2:59 PM 64.4 °F - 21.2 °F 19% 29.66 in 70.0 mi WNW 13.8 mph 24.2 mph N/A   Mostly Cloudy
3:47 PM 64.4 °F - 19.4 °F 18% 29.65 in 40.0 mi WNW 16.1 mph 24.2 mph N/A   Mostly Cloudy
4:53 PM 59.0 °F - 21.2 °F 23% 29.66 in 40.0 mi NW 15.0 mph - N/A   Mostly Cloudy
5:47 PM 57.2 °F - 23.0 °F 27% 29.66 in 40.0 mi NNW 11.5 mph - N/A   Scattered Clouds
6:47 PM 57.2 °F - 24.8 °F 29% 29.66 in 40.0 mi West 27.6 mph 40.3 mph N/A   Scattered Clouds
7:55 PM 55.4 °F - 24.8 °F 31% 29.65 in 40.0 mi WNW 23.0 mph 31.1 mph N/A   Scattered Clouds
8:47 PM 46.4 °F 43.5 °F 24.8 °F 43% 29.61 in 40.0 mi SE 5.8 mph - N/A   Scattered Clouds
9:50 PM 53.6 °F - 24.8 °F 33% 29.60 in 30.0 mi ENE 10.4 mph - N/A   Partly Cloudy
10:00 PM 48.2 °F - 26.6 °F 43% 29.61 in 10.0 mi ESE 12.7 mph 19.6 mph N/A   Clear
10:20 PM 51.8 °F - 23.0 °F 33% 29.61 in 10.0 mi NNE 5.8 mph - N/A   Clear
10:40 PM 53.6 °F - 23.0 °F 30% 29.60 in 10.0 mi NW 13.8 mph 25.3 mph N/A   Clear
11:01 PM 53.6 °F - 21.2 °F 28% 29.57 in 10.0 mi WNW 29.9 mph 52.9 mph N/A   Clear
11:21 PM 53.6 °F - 21.2 °F 28% 29.58 in 10.0 mi NW 19.6 mph 41.4 mph N/A   Clear
11:41 PM 53.6 °F - 21.2 °F 28% 29.59 in 10.0 mi NW 27.6 mph 38.0 mph N/A   Clear